Time,TemperatureF,DewpointF,PressureIn,WindDirection,WindDirectionDegrees,WindSpeedMPH,WindSpeedGustMPH,Humidity,HourlyPrecipIn,Conditions,Clouds,dailyrainin,SolarRadiationWatts/m^2,SoftwareType,DateUTC
2013-04-08 00:02:00,47.0,47.0,-100.00,West,267,17.0,29.0,100,0.09,,,0.09,0.000000,,2013-04-08 07:02:00,
2013-04-08 00:12:00,47.0,47.0,-100.00,West,267,17.0,29.0,100,0.09,,,0.09,0.000000,,2013-04-08 07:12:00,
2013-04-08 00:22:00,47.0,47.0,-100.00,West,267,17.0,29.0,100,0.09,,,0.09,0.000000,,2013-04-08 07:22:00,
2013-04-08 00:52:00,45.0,45.0,-100.00,West,280,29.0,41.0,100,0.02,,,0.11,0.000000,,2013-04-08 07:52:00,
2013-04-08 01:02:00,45.0,45.0,-100.00,West,280,29.0,41.0,100,0.02,,,0.11,0.000000,,2013-04-08 08:02:00,
2013-04-08 01:12:00,45.0,45.0,-100.00,West,280,29.0,41.0,100,0.02,,,0.11,0.000000,,2013-04-08 08:12:00,
2013-04-08 01:22:00,45.0,45.0,-100.00,West,280,29.0,41.0,100,0.02,,,0.11,0.000000,,2013-04-08 08:22:00,
2013-04-08 01:52:00,41.0,41.0,-100.00,West,277,34.0,45.0,100,0.01,,,0.12,0.000000,,2013-04-08 08:52:00,
2013-04-08 02:02:00,41.0,41.0,-100.00,West,277,34.0,45.0,100,0.01,,,0.12,0.000000,,2013-04-08 09:02:00,
2013-04-08 02:12:00,41.0,41.0,-100.00,West,277,34.0,45.0,100,0.01,,,0.12,0.000000,,2013-04-08 09:12:00,
2013-04-08 02:22:00,41.0,41.0,-100.00,West,277,34.0,45.0,100,0.01,,,0.12,0.000000,,2013-04-08 09:22:00,
2013-04-08 02:53:00,41.0,41.0,-100.00,WNW,286,22.0,41.0,100,0.00,,,0.12,0.000000,,2013-04-08 09:53:00,
2013-04-08 03:03:00,41.0,41.0,-100.00,WNW,286,22.0,41.0,100,0.00,,,0.12,0.000000,,2013-04-08 10:03:00,
2013-04-08 03:13:00,41.0,41.0,-100.00,WNW,286,22.0,41.0,100,0.00,,,0.12,0.000000,,2013-04-08 10:13:00,
2013-04-08 03:23:00,41.0,41.0,-100.00,WNW,286,22.0,41.0,100,0.00,,,0.12,0.000000,,2013-04-08 10:23:00,
2013-04-08 03:53:00,41.0,41.0,-100.00,West,281,25.0,39.0,100,0.00,,,0.12,0.000000,,2013-04-08 10:53:00,
2013-04-08 04:02:00,41.0,41.0,-100.00,West,281,25.0,39.0,100,0.00,,,0.12,0.000000,,2013-04-08 11:02:00,
2013-04-08 04:12:00,41.0,41.0,-100.00,West,281,25.0,39.0,100,0.00,,,0.12,0.000000,,2013-04-08 11:12:00,
2013-04-08 04:22:00,41.0,41.0,-100.00,West,281,25.0,39.0,100,0.00,,,0.12,0.000000,,2013-04-08 11:22:00,
2013-04-08 04:52:00,41.0,41.0,-100.00,West,281,24.0,38.0,100,0.00,,,0.12,0.000000,,2013-04-08 11:52:00,
2013-04-08 05:02:00,41.0,41.0,-100.00,West,281,24.0,38.0,100,0.00,,,0.12,0.000000,,2013-04-08 12:02:00,
2013-04-08 05:12:00,41.0,41.0,-100.00,West,281,24.0,38.0,100,0.00,,,0.12,0.000000,,2013-04-08 12:12:00,
2013-04-08 05:22:00,41.0,41.0,-100.00,West,281,24.0,38.0,100,0.00,,,0.12,0.000000,,2013-04-08 12:22:00,
2013-04-08 05:52:00,40.0,39.0,-100.00,West,272,24.0,35.0,95,0.00,,,0.12,0.000000,,2013-04-08 12:52:00,
2013-04-08 06:02:00,40.0,39.0,-100.00,West,272,24.0,35.0,95,0.00,,,0.12,0.000000,,2013-04-08 13:02:00,
2013-04-08 06:12:00,40.0,39.0,-100.00,West,272,24.0,35.0,95,0.00,,,0.12,0.000000,,2013-04-08 13:12:00,
2013-04-08 06:22:00,40.0,39.0,-100.00,West,272,24.0,35.0,95,0.00,,,0.12,0.000000,,2013-04-08 13:22:00,
2013-04-08 06:52:00,39.0,37.0,-100.00,West,272,25.0,31.0,92,0.00,,,0.12,0.000000,,2013-04-08 13:52:00,
2013-04-08 07:02:00,39.0,37.0,-100.00,West,272,25.0,31.0,92,0.00,,,0.12,0.000000,,2013-04-08 14:02:00,
2013-04-08 07:12:00,39.0,37.0,-100.00,West,272,25.0,31.0,92,0.00,,,0.12,0.000000,,2013-04-08 14:12:00,
2013-04-08 07:22:00,39.0,37.0,-100.00,West,272,25.0,31.0,92,0.00,,,0.12,0.000000,,2013-04-08 14:22:00,
2013-04-08 07:52:00,39.0,36.0,-100.00,West,272,24.0,29.0,90,0.00,,,0.12,27.000000,,2013-04-08 14:52:00,
2013-04-08 08:02:00,39.0,36.0,-100.00,West,272,24.0,29.0,90,0.00,,,0.12,27.000000,,2013-04-08 15:02:00,
2013-04-08 08:12:00,39.0,36.0,-100.00,West,272,24.0,29.0,90,0.00,,,0.12,27.000000,,2013-04-08 15:12:00,
2013-04-08 08:22:00,39.0,36.0,-100.00,West,272,24.0,29.0,90,0.00,,,0.12,27.000000,,2013-04-08 15:22:00,
2013-04-08 08:53:00,41.0,37.0,-100.00,West,277,24.0,31.0,84,0.00,,,0.12,161.000000,,2013-04-08 15:53:00,
2013-04-08 09:03:00,41.0,37.0,-100.00,West,277,24.0,31.0,84,0.00,,,0.12,161.000000,,2013-04-08 16:03:00,
2013-04-08 09:12:00,41.0,37.0,-100.00,West,277,24.0,31.0,84,0.00,,,0.12,161.000000,,2013-04-08 16:12:00,
2013-04-08 09:22:00,41.0,37.0,-100.00,West,277,24.0,31.0,84,0.00,,,0.12,161.000000,,2013-04-08 16:22:00,
2013-04-08 09:53:00,45.0,37.0,-100.00,West,281,18.0,32.0,74,0.00,,,0.12,389.000000,,2013-04-08 16:53:00,
2013-04-08 10:02:00,45.0,37.0,-100.00,West,281,18.0,32.0,74,0.00,,,0.12,389.000000,,2013-04-08 17:02:00,
2013-04-08 10:12:00,45.0,37.0,-100.00,West,281,18.0,32.0,74,0.00,,,0.12,389.000000,,2013-04-08 17:12:00,
2013-04-08 10:22:00,45.0,37.0,-100.00,West,281,18.0,32.0,74,0.00,,,0.12,389.000000,,2013-04-08 17:22:00,
2013-04-08 10:52:00,53.0,34.0,-100.00,WNW,299,15.0,30.0,49,0.00,,,0.12,578.000000,,2013-04-08 17:52:00,
2013-04-08 11:02:00,53.0,34.0,-100.00,WNW,299,15.0,30.0,49,0.00,,,0.12,578.000000,,2013-04-08 18:02:00,
2013-04-08 11:12:00,53.0,34.0,-100.00,WNW,299,15.0,30.0,49,0.00,,,0.12,578.000000,,2013-04-08 18:12:00,
2013-04-08 11:22:00,53.0,34.0,-100.00,WNW,299,15.0,30.0,49,0.00,,,0.12,578.000000,,2013-04-08 18:22:00,
2013-04-08 11:52:00,56.0,31.0,-100.00,NW,324,12.0,24.0,38,0.00,,,0.12,734.000000,,2013-04-08 18:52:00,
2013-04-08 12:02:00,56.0,31.0,-100.00,NW,324,12.0,24.0,38,0.00,,,0.12,734.000000,,2013-04-08 19:02:00,
2013-04-08 12:12:00,56.0,31.0,-100.00,NW,324,12.0,24.0,38,0.00,,,0.12,734.000000,,2013-04-08 19:12:00,
2013-04-08 12:22:00,56.0,31.0,-100.00,NW,324,12.0,24.0,38,0.00,,,0.12,734.000000,,2013-04-08 19:22:00,
2013-04-08 12:52:00,58.0,29.0,-100.00,NW,323,13.0,27.0,33,0.00,,,0.12,847.000000,,2013-04-08 19:52:00,
2013-04-08 13:02:00,58.0,29.0,-100.00,NW,323,13.0,27.0,33,0.00,,,0.12,847.000000,,2013-04-08 20:02:00,
2013-04-08 13:12:00,58.0,29.0,-100.00,NW,323,13.0,27.0,33,0.00,,,0.12,847.000000,,2013-04-08 20:12:00,
2013-04-08 13:22:00,58.0,29.0,-100.00,NW,323,13.0,27.0,33,0.00,,,0.12,847.000000,,2013-04-08 20:22:00,
2013-04-08 13:52:00,58.0,28.0,-100.00,NNW,327,12.0,27.0,32,0.00,,,0.12,895.000000,,2013-04-08 20:52:00,
2013-04-08 14:02:00,58.0,28.0,-100.00,NNW,327,12.0,27.0,32,0.00,,,0.12,895.000000,,2013-04-08 21:02:00,
2013-04-08 14:12:00,58.0,28.0,-100.00,NNW,327,12.0,27.0,32,0.00,,,0.12,895.000000,,2013-04-08 21:12:00,
2013-04-08 14:22:00,58.0,28.0,-100.00,NNW,327,12.0,27.0,32,0.00,,,0.12,895.000000,,2013-04-08 21:22:00,
2013-04-08 14:53:00,58.0,27.0,-100.00,NW,319,11.0,24.0,30,0.00,,,0.12,881.000000,,2013-04-08 21:53:00,
2013-04-08 15:02:00,58.0,27.0,-100.00,NW,319,11.0,24.0,30,0.00,,,0.12,881.000000,,2013-04-08 22:02:00,
2013-04-08 15:12:00,58.0,27.0,-100.00,NW,319,11.0,24.0,30,0.00,,,0.12,881.000000,,2013-04-08 22:12:00,
2013-04-08 15:22:00,58.0,27.0,-100.00,NW,319,11.0,24.0,30,0.00,,,0.12,881.000000,,2013-04-08 22:22:00,
2013-04-08 15:53:00,60.0,28.0,-100.00,NNW,329,10.0,23.0,29,0.00,,,0.12,806.000000,,2013-04-08 22:53:00,
2013-04-08 16:02:00,60.0,28.0,-100.00,NNW,329,10.0,23.0,29,0.00,,,0.12,806.000000,,2013-04-08 23:02:00,
2013-04-08 16:12:00,60.0,28.0,-100.00,NNW,329,10.0,23.0,29,0.00,,,0.12,806.000000,,2013-04-08 23:12:00,
2013-04-08 16:22:00,60.0,28.0,-100.00,NNW,329,10.0,23.0,29,0.00,,,0.12,806.000000,,2013-04-08 23:22:00,
2013-04-08 16:52:00,64.0,25.0,-100.00,NNW,340,10.0,21.0,23,0.00,,,0.12,675.000000,,2013-04-08 23:52:00,
2013-04-08 17:02:00,64.0,25.0,-100.00,NNW,340,10.0,21.0,23,0.00,,,0.12,675.000000,,2013-04-09 00:02:00,
2013-04-08 17:12:00,64.0,25.0,-100.00,NNW,340,10.0,21.0,23,0.00,,,0.12,675.000000,,2013-04-09 00:12:00,
2013-04-08 17:22:00,64.0,25.0,-100.00,NNW,340,10.0,21.0,23,0.00,,,0.12,675.000000,,2013-04-09 00:22:00,
2013-04-08 17:52:00,61.0,24.0,-100.00,NW,324,11.0,22.0,24,0.00,,,0.12,502.000000,,2013-04-09 00:52:00,
2013-04-08 18:02:00,61.0,24.0,-100.00,NW,324,11.0,22.0,24,0.00,,,0.12,502.000000,,2013-04-09 01:02:00,
2013-04-08 18:12:00,61.0,24.0,-100.00,NW,324,11.0,22.0,24,0.00,,,0.12,502.000000,,2013-04-09 01:12:00,
2013-04-08 18:22:00,61.0,24.0,-100.00,NW,324,11.0,22.0,24,0.00,,,0.12,502.000000,,2013-04-09 01:22:00,
2013-04-08 18:52:00,59.0,21.0,-100.00,NNW,335,10.0,24.0,23,0.00,,,0.12,304.000000,,2013-04-09 01:52:00,
2013-04-08 19:02:00,59.0,21.0,-100.00,NNW,335,10.0,24.0,23,0.00,,,0.12,304.000000,,2013-04-09 02:02:00,
2013-04-08 19:12:00,59.0,21.0,-100.00,NNW,335,10.0,24.0,23,0.00,,,0.12,304.000000,,2013-04-09 02:12:00,
2013-04-08 19:22:00,59.0,21.0,-100.00,NNW,335,10.0,24.0,23,0.00,,,0.12,304.000000,,2013-04-09 02:22:00,
2013-04-08 19:52:00,54.0,22.0,-100.00,WNW,293,12.0,20.0,28,0.00,,,0.12,102.000000,,2013-04-09 02:52:00,
2013-04-08 20:02:00,54.0,22.0,-100.00,WNW,293,12.0,20.0,28,0.00,,,0.12,102.000000,,2013-04-09 03:02:00,
2013-04-08 20:12:00,54.0,22.0,-100.00,WNW,293,12.0,20.0,28,0.00,,,0.12,102.000000,,2013-04-09 03:12:00,
2013-04-08 20:21:00,54.0,22.0,-100.00,WNW,293,12.0,20.0,28,0.00,,,0.12,102.000000,,2013-04-09 03:21:00,
2013-04-08 20:53:00,51.0,40.0,-100.00,West,266,12.0,18.0,66,0.00,,,0.12,2.000000,,2013-04-09 03:53:00,
2013-04-08 21:02:00,51.0,40.0,-100.00,West,266,12.0,18.0,66,0.00,,,0.12,2.000000,,2013-04-09 04:02:00,
2013-04-08 21:13:00,51.0,40.0,-100.00,West,266,12.0,18.0,66,0.00,,,0.12,2.000000,,2013-04-09 04:13:00,
2013-04-08 21:22:00,51.0,40.0,-100.00,West,266,12.0,18.0,66,0.00,,,0.12,2.000000,,2013-04-09 04:22:00,
2013-04-08 22:02:00,50.0,39.0,-100.00,West,272,15.0,24.0,66,0.00,,,0.12,0.000000,,2013-04-09 05:02:00,
2013-04-08 22:12:00,50.0,39.0,-100.00,West,272,15.0,24.0,66,0.00,,,0.12,0.000000,,2013-04-09 05:12:00,
2013-04-08 22:22:00,50.0,39.0,-100.00,West,272,15.0,24.0,66,0.00,,,0.12,0.000000,,2013-04-09 05:22:00,
2013-04-08 22:52:00,53.0,32.0,-100.00,NW,306,11.0,22.0,45,0.00,,,0.12,0.000000,,2013-04-09 05:52:00,
2013-04-08 23:02:00,53.0,32.0,-100.00,NW,306,11.0,22.0,45,0.00,,,0.12,0.000000,,2013-04-09 06:02:00,
2013-04-08 23:12:00,53.0,32.0,-100.00,NW,306,11.0,22.0,45,0.00,,,0.12,0.000000,,2013-04-09 06:12:00,
2013-04-08 23:22:00,53.0,32.0,-100.00,NW,306,11.0,22.0,45,0.00,,,0.12,0.000000,,2013-04-09 06:22:00,
2013-04-08 23:52:00,52.0,27.0,-100.00,NW,316,10.0,20.0,38,0.00,,,0.03,0.000000,,2013-04-09 06:52:00,